TimeCST,TemperatureF,Dew PointF,Humidity,Sea Level PressureIn,VisibilityMPH,Wind Direction,Wind SpeedMPH,Gust SpeedMPH,PrecipitationIn,Events,Conditions,WindDirDegrees,DateUTC
12:58 AM,37.4,33.8,87,30.13,10.0,SW,2.3,-,N/A,,Clear,220,2013-12-01 06:58:00
1:58 AM,34.0,33.4,98,30.13,10.0,South,2.3,-,N/A,,Clear,190,2013-12-01 07:58:00
2:58 AM,33.8,33.8,100,30.13,10.0,WNW,2.3,-,N/A,,Overcast,300,2013-12-01 08:58:00
3:58 AM,39.6,36.7,89,30.12,10.0,Variable,1.2,-,N/A,,Overcast,0,2013-12-01 09:58:00
4:58 AM,35.8,35.4,99,30.12,10.0,Calm,Calm,-,N/A,,Clear,0,2013-12-01 10:58:00
5:58 AM,35.2,34.9,99,30.12,10.0,West,2.3,-,N/A,,Clear,280,2013-12-01 11:58:00
6:58 AM,33.3,33.1,99,30.13,10.0,SE,2.3,-,N/A,,Clear,140,2013-12-01 12:58:00
7:58 AM,33.6,33.4,99,30.14,10.0,Calm,Calm,-,N/A,,Clear,0,2013-12-01 13:58:00
8:58 AM,43.2,40.8,91,30.15,10.0,Calm,Calm,-,N/A,,Clear,0,2013-12-01 14:58:00
9:58 AM,50.0,41.0,71,30.14,10.0,Variable,2.3,-,N/A,,Clear,0,2013-12-01 15:58:00
10:58 AM,53.6,39.2,58,30.12,10.0,NW,4.6,-,N/A,,Clear,310,2013-12-01 16:58:00
11:58 AM,55.9,40.3,56,30.08,10.0,West,2.3,-,N/A,,Clear,260,2013-12-01 17:58:00
12:58 PM,57.7,39.9,51,30.05,6.0,Variable,2.3,-,N/A,,Haze,0,2013-12-01 18:58:00
1:58 PM,57.2,39.2,51,30.02,10.0,NW,3.5,-,N/A,,Clear,310,2013-12-01 19:58:00
2:58 PM,57.9,39.0,49,30.01,10.0,Variable,2.3,-,N/A,,Clear,0,2013-12-01 20:58:00
3:58 PM,55.4,39.2,54,30.00,10.0,NNW,3.5,-,N/A,,Clear,330,2013-12-01 21:58:00
4:58 PM,51.3,37.9,60,30.00,10.0,NNE,2.3,-,N/A,,Clear,20,2013-12-01 22:58:00
5:58 PM,42.8,35.6,76,30.00,10.0,NNE,2.3,-,N/A,,Clear,20,2013-12-01 23:58:00
6:58 PM,38.7,34.0,83,29.99,10.0,Calm,Calm,-,N/A,,Clear,0,2013-12-02 00:58:00
7:58 PM,39.4,35.4,86,29.99,10.0,Calm,Calm,-,N/A,,Overcast,0,2013-12-02 01:58:00
8:58 PM,43.0,36.0,76,29.98,10.0,ENE,2.3,-,N/A,,Overcast,60,2013-12-02 02:58:00
9:58 PM,41.5,35.6,79,29.98,10.0,Calm,Calm,-,N/A,,Overcast,0,2013-12-02 03:58:00
10:58 PM,40.6,34.7,79,29.95,10.0,Calm,Calm,-,N/A,,Scattered Clouds,0,2013-12-02 04:58:00
11:58 PM,37.2,34.3,89,29.92,10.0,East,4.6,-,N/A,,Scattered Clouds,100,2013-12-02 05:58:00